Погода в Кайо-Гильермо

Куба     22°35′27″N   78°39′42″W
темп.,
°C
ветер,
м/с
пор.,
м/с
влажн.,
%
обл.,
%
осадки,
мм/ч
давл.,
гПа
погр.,
м
19 июня, сб
сб1923:00+28в8974100 0.1 10181091
02:00+28в787999 0.2 1017863
05:00+28в898135 0.1 1016840
08:00+28вюв7881100 0.3 1017744
11:00+29вюв567997 0.2 1018699
14:00+29всв778069 0.4 1017457
17:00+29всв7780100 0.7 1016510
20:00+28в788470 0.8 1017595
20 июня, вс
вс2023:00+28вюв77826 0.0 1017614
02:00+28вюв678430 0.0 1017716
05:00+28вюв568063 0.1 1016745
08:00+28вюв677797 0.1 1018838
11:00+29вюв677596 0.1 1019994
14:00+29в777517 0.1 1018907
17:00+29в887772 0.0 1016583
20:00+29в897865 0.0 1017648
21 июня, пн
пн2123:00+28вюв898015 0.0 1018905
02:00+28вюв787855 0.1 1017985
05:00+28вюв78798 0.1 1016834
08:00+28вюв81080100 0.1 1017863
11:00+29в787711 0.1 1018897
14:00+29в88785 0.1 1017703
17:00+29в88807 0.1 1015554
20:00+28в88835 0.1 1016576
22 июня, вт
вт2223:00+28в8882100 0.1 1017674
02:00+28вюв788237 0.6 1016643
05:00+28вюв568111 0.9 1015656
08:00+28вюв55798 0.9 1016650
11:00+28в56782 0.1 1017621
14:00+29в76776 0.1 1016577
17:00+28в77790 0.7 1015478
20:00+28в56808 3.3 1016341
23 июня, ср
ср2323:00+28вюв66818 2.1 1017523
02:00+28вюв568397 4.3 1017501
05:00+27юв56837 1.8 1016343
08:00+28вюв5680100 5.6 1017550
11:00+28вюв677774 0.1 1018857
14:00+29в88760 0.2 1017760
17:00+29в89785 0.0 1016822
20:00+28в99797 0.0 1017867